Showing default

KANOPUS-V-IK, 42825

Orbit data source: Space-Track

KANOPUS-V-IK, 42825 is a payload satellite owned by VNIIEM (CIS) in SSO that was launched on Fri, 14 Jul 2017 UTC via a SOYUZ-2-1A launch vehicle from the Tyuratam Missile And Space Complex (TTMTR). Payload-class satellites include a variety of spacecraft equipped with specific instruments for various scientific and technological missions. These include communications satellites like Starlink; space stations such as the ISS; scientific satellites like the Hubble; Earth observation satellites from companies like Planet Labs, Umbra, and HawkEye 360; GPS; miniature CubeSats for education and research; and military/defense satellites.

Loading next visibility...
Identifier
42825, 2017-042A
Orbit
SSO
Last TLE update
5 hours ago
Origin
Manufacturer
VNIIEM
Mission
Operational Civil Imaging
Bus & Motor
KANOPUS, Unknown motor
Mass
550 kg wet, 550 kg dry
Launch date (UTC)
2017-07-14 (8 years ago)
Launch vehicle
SOYUZ-2-1A
Launch site
Tyuratam Missile And Space Complex (TTMTR)
Object type
Payload
Rocket body
Debris
Shape & HBR
Box + 2 Pan, 6 m
Radar Cross Section
1.665 m², Large (>1 m²)

Expand to show TLE details & history

TLE from 5 hours ago
0 KANOPUS-V-IK
1 42825U 17042A   25189.15947031  .00002006  00000-0  88678-4 0  9999
2 42825  97.3769  96.1928 0001633  90.9621 269.1803 15.22854009443005
Epoch: 2025-07-08T03:49Z
TLE epoch observation values (Epoch: 2025-07-08T03:49:38.234Z)
Latitude
-0.00003°
Longitude
112.42504°
Altitude
500.348 km
Speed
7.614 km/s
True Right ascension
06h 24m 46s
True Declination
0° 00' 00"
Sunlit
Object was in daylight at epoch
Visualization orbit readout
Latitude
33.76381°
Longitude
107.68683°
Altitude
501.155 km
Speed
7.617 km/s
Apparent Right ascension
07h 20m 24s
Apparent Declination
-1° 32' 17"
Sunlit
Object is in daylight
Visualization observer readout
Local Sidereal Time
20:48:09
Azimuth
33.034° NE
Elevation
-46.753°
Doppler factor
1
Orbital elements
Apogee altitude
495.32 km
Perigee altitude
493.076 km
Semi-major axis
6,872.335 km
Eccentricity
0.00016
Inclination
97.3769°
RAAN
96.1928°
Arg. of periapsis
90.9621°
True anomaly
Unknown
Mean anomaly
269.1803°
Eccentric anomaly
Unknown
Mean motion
3.80966 °/min
Orbital period
94.5 mins
BSTAR
0.000088678
Loading maneuver chart data...
Loading SW <> Apogee altitude chart data...

KANOPUS-V-IK Visibility forecast

Observer location: undefined°, undefined°

Span
Click to sort rows by Start time (UTC) header in descending order
Start Az.
Max El. time (UTC)
Max El. Az.
Max El.
End time (UTC)
End Az.
6 mins2025-07-08 18:08:24.226Z183.864° SSW2025-07-08 18:11:24.226Z245.645° WSW37.925°2025-07-08 18:14:24.226Z334.366° NNW
5 mins2025-07-09 07:12:24.226Z341.889° N2025-07-09 07:14:24.226Z289.479° WNW29.634°2025-07-09 07:17:24.226Z223.631° SW
|